FW3754 Weather Reports


Display with metric or nautical units.
time (UTC)temp
F
wind
direction
speed
MPH
gust
MPH
rain 1hr
in
rain 24hr
in
rain mn
in
humidity
%
barometer
mb
20211208221539 83 211 1.0 0.0 0.00 0.00 0.00 63 1015.2
20211208220113 84 228 2.0 0.0 0.00 0.00 0.00 62 1015.1
20211208214602 85 315 3.0 0.0 0.00 0.00 0.00 62 1015.1
20211208213105 86 277 3.0 0.0 0.00 0.00 0.00 58 1015.1
20211208211545 86 226 2.0 0.0 0.00 0.00 0.00 57 1015.1
20211208210058 86 232 3.0 0.0 0.00 0.00 0.00 57 1015.1
20211208204539 86 197 3.0 0.0 0.00 0.00 0.00 56 1015.1
20211208203107 86 225 5.0 0.0 0.00 0.00 0.00 54 1015.1
20211208201534 86 273 4.0 0.0 0.00 0.00 0.00 55 1015.1
20211208200048 85 252 4.0 0.0 0.00 0.00 0.00 57 1015.3
20211208194529 85 205 5.0 0.0 0.00 0.00 0.00 56 1015.3
20211208193109 85 286 4.0 0.0 0.00 0.00 0.00 57 1015.4
20211208191537 85 337 4.0 0.0 0.00 0.00 0.00 56 1015.6
20211208190109 85 231 5.0 0.0 0.00 0.00 0.00 55 1015.7
20211208184519 85 204 3.0 0.0 0.00 0.00 0.00 56 1015.9
20211208183026 85 195 3.0 0.0 0.00 0.00 0.00 55 1016.2
20211208181534 84 184 3.0 0.0 0.00 0.00 0.00 59 1016.4
20211208180015 84 239 3.0 0.0 0.00 0.00 0.00 56 1016.7
20211208174514 86 192 3.0 0.0 0.00 0.00 0.00 56 1017.1
20211208173011 84 174 2.0 0.0 0.00 0.00 0.00 60 1017.3
20211208171522 85 174 3.0 0.0 0.00 0.00 0.00 59 1017.7
20211208170031 83 207 3.0 0.0 0.00 0.00 0.00 61 1017.9
20211208164534 83 173 2.0 0.0 0.00 0.00 0.00 63 1018.1
20211208163008 82 213 2.0 0.0 0.00 0.00 0.00 61 1018.3
20211208161502 81 205 1.0 0.0 0.00 0.00 0.00 65 1018.5
20211208160005 81 182 3.0 0.0 0.00 0.00 0.00 67 1018.7
20211208154709 81 166 2.0 0.0 0.00 0.00 0.00 66 1018.9
20211208153307 81 175 2.0 0.0 0.00 0.00 0.00 68 1018.8
20211208151615 80 182 1.0 0.0 0.00 0.00 0.00 71 1018.9
20211208150127 78 114 1.0 0.0 0.00 0.00 0.00 75 1019.0
20211208144551 76 103 0.0 0.0 0.00 0.00 0.00 81 1019.0
20211208143146 74 102 0.0 0.0 0.00 0.00 0.00 83 1018.8
20211208141715 73 103 0.0 0.0 0.00 0.00 0.00 85 1018.9
20211208140107 71 102 0.0 0.0 0.00 0.00 0.00 87 1018.9
20211208134534 70 103 0.0 0.0 0.00 0.00 0.00 88 1018.7
20211208133027 69 103 1.0 0.0 0.00 0.00 0.00 88 1018.7
20211208131553 67 103 0.0 0.0 0.00 0.00 0.00 88 1018.5
20211208130041 66 103 0.0 0.0 0.00 0.00 0.00 88 1018.2
20211208124542 65 103 0.0 0.0 0.00 0.00 0.00 88 1018.1
20211208123025 65 103 0.0 0.0 0.00 0.00 0.00 88 1018.0
20211208121518 64 94 0.0 0.0 0.00 0.00 0.00 89 1017.8
20211208120018 64 94 0.0 0.0 0.00 0.00 0.00 89 1017.7
20211208114517 64 94 0.0 0.0 0.00 0.00 0.00 88 1017.5
20211208113036 65 94 0.0 0.0 0.00 0.00 0.00 88 1017.6
20211208111551 64 94 0.0 0.0 0.00 0.00 0.00 88 1017.4
20211208110027 65 94 0.0 0.0 0.00 0.00 0.00 88 1017.4
20211208104519 65 95 0.0 0.0 0.00 0.00 0.00 88 1017.1
20211208103046 64 95 0.0 0.0 0.00 0.00 0.00 88 1016.8
20211208101522 64 95 0.0 0.0 0.00 0.00 0.00 88 1016.6
20211208100009 65 95 0.0 0.0 0.00 0.00 0.00 88 1016.5
20211208094510 65 95 0.0 0.0 0.00 0.00 0.00 88 1016.6
20211208093008 65 95 0.0 0.0 0.00 0.00 0.00 88 1016.6
20211208091508 65 95 0.0 0.0 0.00 0.00 0.00 88 1016.4
20211208090007 65 95 0.0 0.0 0.00 0.00 0.00 88 1016.5
20211208084506 65 95 0.0 0.0 0.00 0.00 0.00 88 1016.4
20211208083006 65 95 0.0 0.0 0.00 0.00 0.00 88 1016.5
20211208081521 65 95 0.0 0.0 0.00 0.00 0.00 88 1016.5
20211208080002 65 95 0.0 0.0 0.00 0.00 0.00 88 1016.6
20211208074719 65 95 0.0 0.0 0.00 0.00 0.00 88 1016.9
20211208073153 65 95 0.0 0.0 0.00 0.00 0.00 88 1017.0
20211208071744 66 95 0.0 0.0 0.00 0.00 0.00 88 1017.3
20211208070144 66 95 1.0 0.0 0.00 0.00 0.00 88 1017.4
20211208064607 67 95 0.0 0.0 0.00 0.00 0.00 88 1017.4
20211208063057 67 95 1.0 0.0 0.00 0.00 0.00 88 1017.3
20211208061730 67 126 0.0 0.0 0.00 0.00 0.00 88 1017.2
20211208060112 67 127 0.0 0.0 0.00 0.00 0.00 88 1017.2
20211208054614 67 127 0.0 0.0 0.00 0.00 0.00 88 1017.4
20211208053121 67 126 0.0 0.0 0.00 0.00 0.00 88 1017.5
20211208051607 67 126 0.0 0.0 0.00 0.00 0.00 88 1017.7
20211208050137 67 126 0.0 0.0 0.00 0.00 0.00 87 1017.7
20211208044656 68 127 0.0 0.0 0.00 0.00 0.01 87 1017.8
20211208043113 68 126 0.0 0.0 0.00 0.00 0.01 87 1018.2
20211208041625 68 126 0.0 0.0 0.00 0.00 0.01 87 1018.2
20211208040123 69 127 0.0 0.0 0.00 0.00 0.01 87 1018.3
20211208034618 69 126 0.0 0.0 0.00 0.00 0.01 87 1018.4
20211208033139 69 126 0.0 0.0 0.00 0.00 0.01 87 1018.5
20211208031612 69 127 0.0 0.0 0.00 0.00 0.01 87 1018.5
20211208030057 70 127 0.0 0.0 0.00 0.00 0.01 87 1018.4
20211208024559 70 127 0.0 0.0 0.00 0.00 0.01 87 1018.4
20211208023134 70 127 0.0 0.0 0.00 0.00 0.01 86 1018.3
20211208021625 70 126 0.0 0.0 0.00 0.00 0.01 86 1018.2
20211208020130 71 126 0.0 0.0 0.00 0.00 0.01 86 1018.2
20211208014640 71 126 1.0 0.0 0.00 0.00 0.01 85 1018.0
20211208013104 71 127 0.0 0.0 0.00 0.00 0.01 85 1017.8
20211208011623 72 127 0.0 0.0 0.00 0.00 0.01 84 1017.8
20211208010056 72 127 0.0 0.0 0.00 0.00 0.01 82 1017.9
20211208004636 73 127 0.0 0.0 0.00 0.00 0.01 82 1018.0
20211208003141 73 127 0.0 0.0 0.00 0.00 0.01 81 1017.7
20211208001627 74 127 0.0 0.0 0.00 0.00 0.01 80 1017.8
20211208000108 74 127 0.0 0.0 0.00 0.00 0.01 79 1017.6
20211207234620 75 127 0.0 0.0 0.00 0.00 0.01 77 1017.4
20211207233108 76 127 0.0 0.0 0.00 0.00 0.01 75 1017.3
20211207231548 77 127 1.0 0.0 0.00 0.00 0.01 73 1017.2
20211207230103 78 127 1.0 0.0 0.00 0.00 0.01 70 1017.2
20211207224612 79 127 2.0 0.0 0.00 0.00 0.01 68 1017.0
20211207223111 81 125 2.0 0.0 0.00 0.00 0.01 65 1017.1